BAW33C EGPH-ENBR

Flight info

Callsign BAW33C
Flight time 1h 9m
Altitude 35000
Route GRICE P600 ASNUD DCT BEREP DCT MODNI
Aircraft A321/M-SDE3FGHIRWY/LB1

Departure

Time 2026-05-06 20:10
Airport Edinburgh Airport (EGPH)

Arrival

Time 2026-05-06 21:19
Airport Bergen Airport, Flesland (ENBR)
Time Latitude Longitude Altitude Speed Heading
2026-05-06 19:43 55.94922 -3.36432 113 ft 0 kts 148°
2026-05-06 19:58 55.94940 -3.36450 112 ft 4 kts 155°
2026-05-06 19:58 55.94965 -3.36465 114 ft 4 kts 174°
2026-05-06 19:58 55.94990 -3.36461 113 ft 4 kts 220°
2026-05-06 19:58 55.94996 -3.36450 112 ft 0 kts 239°
2026-05-06 20:02 55.94988 -3.36475 113 ft 6 kts 239°
2026-05-06 20:02 55.94955 -3.36570 115 ft 12 kts 239°
2026-05-06 20:02 55.94914 -3.36692 112 ft 9 kts 239°
2026-05-06 20:02 55.94895 -3.36779 114 ft 7 kts 277°
2026-05-06 20:03 55.94922 -3.36837 115 ft 6 kts 307°
2026-05-06 20:03 55.94918 -3.36918 114 ft 8 kts 244°
2026-05-06 20:03 55.94887 -3.37012 114 ft 10 kts 239°
2026-05-06 20:03 55.94844 -3.37140 114 ft 14 kts 239°
2026-05-06 20:04 55.94789 -3.37304 112 ft 16 kts 239°
2026-05-06 20:04 55.94727 -3.37485 111 ft 17 kts 238°
2026-05-06 20:04 55.94665 -3.37667 113 ft 17 kts 239°
2026-05-06 20:04 55.94604 -3.37846 113 ft 17 kts 239°
2026-05-06 20:05 55.94544 -3.38023 113 ft 17 kts 239°
2026-05-06 20:05 55.94480 -3.38211 114 ft 18 kts 239°
2026-05-06 20:05 55.94414 -3.38405 113 ft 18 kts 238°
2026-05-06 20:05 55.94351 -3.38592 114 ft 16 kts 239°
2026-05-06 20:06 55.94299 -3.38745 112 ft 11 kts 238°
2026-05-06 20:06 55.94278 -3.38821 113 ft 4 kts 262°
2026-05-06 20:06 55.94280 -3.38841 116 ft 0 kts 283°
2026-05-06 20:06 55.94280 -3.38843 116 ft 1 kts 286°
2026-05-06 20:07 55.94297 -3.38876 115 ft 5 kts 323°
2026-05-06 20:07 55.94316 -3.38898 114 ft 0 kts 328°
2026-05-06 20:07 55.94331 -3.38914 115 ft 7 kts 328°
2026-05-06 20:08 55.94389 -3.38978 114 ft 9 kts 328°
2026-05-06 20:08 55.94423 -3.38951 112 ft 5 kts 51°
2026-05-06 20:08 55.94432 -3.38924 114 ft 0 kts 59°
2026-05-06 20:09 55.94480 -3.38781 114 ft 43 kts 59°
2026-05-06 20:09 55.94761 -3.37950 114 ft 111 kts 59°
2026-05-06 20:09 55.95268 -3.36460 127 ft 166 kts 60°
2026-05-06 20:10 55.95884 -3.34707 780 ft 167 kts 60°
2026-05-06 20:10 55.96666 -3.33164 1550 ft 169 kts 45°
2026-05-06 20:10 55.97556 -3.31757 2149 ft 176 kts 45°
2026-05-06 20:10 55.98522 -3.30214 2406 ft 197 kts 45°
2026-05-06 20:11 55.99622 -3.28527 2600 ft 221 kts 37°
2026-05-06 20:11 56.01085 -3.27304 2755 ft 247 kts 15°
2026-05-06 20:11 56.02869 -3.27080 3074 ft 266 kts 352°
2026-05-06 20:11 56.04633 -3.28090 3762 ft 269 kts 329°
2026-05-06 20:12 56.06072 -3.30186 4525 ft 268 kts 307°
2026-05-06 20:12 56.06958 -3.33070 5306 ft 265 kts 285°
2026-05-06 20:12 56.07441 -3.36257 6083 ft 266 kts 283°
2026-05-06 20:12 56.07905 -3.39461 6848 ft 266 kts 283°
2026-05-06 20:13 56.08367 -3.42687 7551 ft 269 kts 283°
2026-05-06 20:13 56.08834 -3.45951 8253 ft 271 kts 283°
2026-05-06 20:13 56.09310 -3.49232 8981 ft 274 kts 283°
2026-05-06 20:13 56.09794 -3.52546 9704 ft 276 kts 284°
2026-05-06 20:14 56.10553 -3.55728 10250 ft 286 kts 298°
2026-05-06 20:14 56.11565 -3.58892 10383 ft 307 kts 298°
2026-05-06 20:14 56.12688 -3.62356 10527 ft 327 kts 298°
2026-05-06 20:14 56.13907 -3.65800 10929 ft 336 kts 308°
2026-05-06 20:15 56.15814 -3.68349 11465 ft 346 kts 336°
2026-05-06 20:15 56.18166 -3.69064 12009 ft 355 kts
2026-05-06 20:15 56.20545 -3.67807 12566 ft 363 kts 26°
2026-05-06 20:15 56.22713 -3.65432 13148 ft 367 kts 33°
2026-05-06 20:16 56.24791 -3.62715 13738 ft 371 kts 36°
2026-05-06 20:16 56.26835 -3.59846 14256 ft 375 kts 37°
2026-05-06 20:16 56.28893 -3.56932 14760 ft 378 kts 36°
2026-05-06 20:16 56.30991 -3.54037 15279 ft 381 kts 35°
2026-05-06 20:17 56.33130 -3.51178 15795 ft 384 kts 34°
2026-05-06 20:17 56.35304 -3.48345 16301 ft 387 kts 33°
2026-05-06 20:17 56.37510 -3.45518 16800 ft 390 kts 33°
2026-05-06 20:17 56.39732 -3.42677 17311 ft 393 kts 33°
2026-05-06 20:18 56.41968 -3.39805 17821 ft 396 kts 33°
2026-05-06 20:18 56.44221 -3.36903 18319 ft 399 kts 33°
2026-05-06 20:18 56.46500 -3.34001 18730 ft 402 kts 32°
2026-05-06 20:18 56.48810 -3.31127 19158 ft 404 kts 31°
2026-05-06 20:19 56.51143 -3.28261 19567 ft 407 kts 31°
2026-05-06 20:19 56.53493 -3.25388 19994 ft 409 kts 31°
2026-05-06 20:19 56.55858 -3.22490 20381 ft 412 kts 31°
2026-05-06 20:19 56.58241 -3.19549 20778 ft 415 kts 31°
2026-05-06 20:20 56.60630 -3.16579 21174 ft 418 kts 31°
2026-05-06 20:20 56.63029 -3.13578 21554 ft 420 kts 31°
2026-05-06 20:20 56.65442 -3.10555 21936 ft 423 kts 30°
2026-05-06 20:20 56.67869 -3.07511 22328 ft 425 kts 31°
2026-05-06 20:21 56.70196 -3.04122 22685 ft 432 kts 40°
2026-05-06 20:21 56.72295 -3.00273 23056 ft 436 kts 41°
2026-05-06 20:21 56.74425 -2.96321 23428 ft 438 kts 41°
2026-05-06 20:21 56.76566 -2.92344 23761 ft 441 kts 41°
2026-05-06 20:22 56.78744 -2.88288 24116 ft 442 kts 41°
2026-05-06 20:22 56.80864 -2.84327 24483 ft 443 kts 41°
2026-05-06 20:22 56.83023 -2.80294 24825 ft 445 kts 41°
2026-05-06 20:22 56.85189 -2.76247 25134 ft 447 kts 41°
2026-05-06 20:23 56.87366 -2.72170 25443 ft 449 kts 41°
2026-05-06 20:23 56.89550 -2.68075 25761 ft 450 kts 41°
2026-05-06 20:23 56.91739 -2.63960 26085 ft 452 kts 41°
2026-05-06 20:23 56.93932 -2.59825 26404 ft 454 kts 41°
2026-05-06 20:24 56.96130 -2.55669 26739 ft 455 kts 41°
2026-05-06 20:24 56.98336 -2.51495 27059 ft 457 kts 41°
2026-05-06 20:24 57.00554 -2.47298 27371 ft 458 kts 41°
2026-05-06 20:24 57.02772 -2.43086 27694 ft 460 kts 41°
2026-05-06 20:25 57.04996 -2.38858 27994 ft 461 kts 40°
2026-05-06 20:25 57.07231 -2.34610 28301 ft 463 kts 40°
2026-05-06 20:25 57.09467 -2.30353 28692 ft 463 kts 40°
2026-05-06 20:25 57.11708 -2.26067 28943 ft 466 kts 40°
2026-05-06 20:26 57.13960 -2.21746 29195 ft 468 kts 40°
2026-05-06 20:26 57.16214 -2.17418 29450 ft 470 kts 40°
2026-05-06 20:26 57.18481 -2.13066 29706 ft 471 kts 40°
2026-05-06 20:26 57.20752 -2.08701 29951 ft 472 kts 40°
2026-05-06 20:27 57.23026 -2.04315 30167 ft 474 kts 40°
2026-05-06 20:27 57.25303 -1.99902 30404 ft 474 kts 40°
2026-05-06 20:27 57.27564 -1.95500 30698 ft 472 kts 40°
2026-05-06 20:27 57.29819 -1.91106 30997 ft 470 kts 40°
2026-05-06 20:28 57.32063 -1.86734 31305 ft 468 kts 40°
2026-05-06 20:28 57.34300 -1.82374 31596 ft 466 kts 39°
2026-05-06 20:28 57.36529 -1.78028 31895 ft 464 kts 40°
2026-05-06 20:28 57.38746 -1.73697 32216 ft 463 kts 39°
2026-05-06 20:29 57.40958 -1.69371 32473 ft 462 kts 39°
2026-05-06 20:29 57.43164 -1.65045 32746 ft 461 kts 39°
2026-05-06 20:29 57.45365 -1.60715 33017 ft 460 kts 39°
2026-05-06 20:29 57.46817 -1.57856 33206 ft 459 kts 39°
2026-05-06 20:30 57.49003 -1.53548 33464 ft 458 kts 39°
2026-05-06 20:30 57.53350 -1.44940 34000 ft 455 kts 39°
2026-05-06 20:30 57.55510 -1.40644 34223 ft 454 kts 39°
2026-05-06 20:31 57.57668 -1.36346 34390 ft 454 kts 39°
2026-05-06 20:31 57.59827 -1.32042 34538 ft 455 kts 39°
2026-05-06 20:31 57.61990 -1.27732 34684 ft 456 kts 39°
2026-05-06 20:31 57.64149 -1.23426 34827 ft 456 kts 40°
2026-05-06 20:32 57.67048 -1.17627 35045 ft 459 kts 40°
2026-05-06 20:32 57.70684 -1.10345 35057 ft 462 kts 41°
2026-05-06 20:33 57.75057 -1.01529 35055 ft 462 kts 41°
2026-05-06 20:33 57.79425 -0.92672 35060 ft 463 kts 41°
2026-05-06 20:34 57.83787 -0.83805 35060 ft 463 kts 41°
2026-05-06 20:34 57.88147 -0.74911 35062 ft 463 kts 41°
2026-05-06 20:35 57.92502 -0.66001 35105 ft 463 kts 41°
2026-05-06 20:35 57.96830 -0.57112 35080 ft 464 kts 41°
2026-05-06 20:36 58.01193 -0.48108 35071 ft 466 kts 41°
2026-05-06 20:36 58.05563 -0.39061 35071 ft 466 kts 41°
2026-05-06 20:37 58.09928 -0.29990 35072 ft 467 kts 41°
2026-05-06 20:37 58.14292 -0.20876 35076 ft 467 kts 42°
2026-05-06 20:38 58.18639 -0.11722 35078 ft 468 kts 42°
2026-05-06 20:38 58.22998 -0.02550 35077 ft 469 kts 42°
2026-05-06 20:39 58.27373 0.06662 35070 ft 471 kts 43°
2026-05-06 20:39 58.31759 0.15947 35068 ft 472 kts 43°
2026-05-06 20:40 58.36144 0.25294 35073 ft 474 kts 43°
2026-05-06 20:40 58.40525 0.34670 35077 ft 474 kts 43°
2026-05-06 20:41 58.44905 0.44072 35085 ft 474 kts 43°
2026-05-06 20:41 58.49256 0.53454 35095 ft 475 kts 43°
2026-05-06 20:42 58.53666 0.63006 35084 ft 476 kts 43°
2026-05-06 20:42 58.58054 0.72534 35070 ft 478 kts 44°
2026-05-06 20:43 58.62420 0.82058 35067 ft 479 kts 44°
2026-05-06 20:43 58.66817 0.91698 35071 ft 480 kts 44°
2026-05-06 20:44 58.71220 1.01375 35077 ft 481 kts 44°
2026-05-06 20:44 58.75615 1.11073 35081 ft 481 kts 44°
2026-05-06 20:45 58.80000 1.20827 35085 ft 481 kts 44°
2026-05-06 20:45 58.84381 1.30591 35088 ft 482 kts 44°
2026-05-06 20:46 58.88764 1.40405 35081 ft 483 kts 45°
2026-05-06 20:46 58.93145 1.50251 35082 ft 483 kts 44°
2026-05-06 20:47 58.97529 1.60131 35084 ft 484 kts 45°
2026-05-06 20:47 59.01907 1.70054 35108 ft 484 kts 45°
2026-05-06 20:48 59.06307 1.79945 35069 ft 483 kts 43°
2026-05-06 20:48 59.10836 1.89613 35068 ft 484 kts 42°
2026-05-06 20:49 59.15407 1.99246 35063 ft 485 kts 43°
2026-05-06 20:49 59.17690 2.04110 34707 ft 486 kts 43°
2026-05-06 20:49 59.19952 2.08991 34344 ft 484 kts 43°
2026-05-06 20:49 59.22192 2.13870 33990 ft 481 kts 43°
2026-05-06 20:50 59.24410 2.18735 33566 ft 478 kts 43°
2026-05-06 20:50 59.26616 2.23581 33151 ft 475 kts 43°
2026-05-06 20:50 59.28771 2.28320 32742 ft 471 kts 43°
2026-05-06 20:50 59.30939 2.33088 32310 ft 467 kts 42°
2026-05-06 20:51 59.33095 2.37814 31839 ft 463 kts 41°
2026-05-06 20:51 59.35234 2.42496 31374 ft 459 kts 41°
2026-05-06 20:51 59.37356 2.47147 30917 ft 455 kts 41°
2026-05-06 20:51 59.39451 2.51756 30484 ft 450 kts 41°
2026-05-06 20:52 59.41523 2.56328 30092 ft 447 kts 41°
2026-05-06 20:52 59.43576 2.60874 29655 ft 443 kts 41°
2026-05-06 20:52 59.45613 2.65392 29209 ft 440 kts 41°
2026-05-06 20:52 59.47634 2.69890 28780 ft 438 kts 41°
2026-05-06 20:53 59.49640 2.74367 28359 ft 435 kts 41°
2026-05-06 20:53 59.51634 2.78827 27942 ft 433 kts 41°
2026-05-06 20:53 59.53615 2.83269 27527 ft 430 kts 42°
2026-05-06 20:53 59.55585 2.87688 27120 ft 428 kts 42°
2026-05-06 20:54 59.57544 2.92086 26769 ft 426 kts 41°
2026-05-06 20:54 59.59493 2.96471 26374 ft 424 kts 42°
2026-05-06 20:54 59.61434 3.00847 25983 ft 423 kts 42°
2026-05-06 20:54 59.63368 3.05212 25598 ft 421 kts 42°
2026-05-06 20:55 59.65289 3.09557 25216 ft 419 kts 42°
2026-05-06 20:55 59.67198 3.13888 24841 ft 417 kts 42°
2026-05-06 20:55 59.69099 3.18202 24465 ft 415 kts 43°
2026-05-06 20:55 59.70994 3.22510 24103 ft 413 kts 43°
2026-05-06 20:56 59.72876 3.26797 23742 ft 412 kts 43°
2026-05-06 20:56 59.74751 3.31071 23345 ft 410 kts 43°
2026-05-06 20:56 59.76616 3.35334 22918 ft 408 kts 43°
2026-05-06 20:56 59.78463 3.39576 22500 ft 405 kts 43°
2026-05-06 20:57 59.80297 3.43797 22077 ft 401 kts 43°
2026-05-06 20:57 59.82114 3.47976 21669 ft 398 kts 43°
2026-05-06 20:57 59.83915 3.52129 21264 ft 395 kts 43°
2026-05-06 20:57 59.85698 3.56249 20911 ft 391 kts 43°
2026-05-06 20:58 59.87461 3.60332 20517 ft 387 kts 43°
2026-05-06 20:58 59.89211 3.64390 20127 ft 384 kts 43°
2026-05-06 20:58 59.90920 3.68358 19749 ft 381 kts 43°
2026-05-06 20:58 59.92639 3.72350 19369 ft 378 kts 43°
2026-05-06 20:59 59.94343 3.76313 18993 ft 375 kts 43°
2026-05-06 20:59 59.96031 3.80256 18625 ft 372 kts 44°
2026-05-06 20:59 59.97704 3.84174 18241 ft 369 kts 44°
2026-05-06 20:59 59.99363 3.88067 17823 ft 367 kts 44°
2026-05-06 21:00 60.01009 3.91939 17403 ft 364 kts 44°
2026-05-06 21:00 60.02640 3.95779 16993 ft 361 kts 44°
2026-05-06 21:00 60.04342 3.99408 16587 ft 354 kts 36°
2026-05-06 21:00 60.06167 4.02684 16186 ft 352 kts 36°
2026-05-06 21:01 60.07978 4.05954 15792 ft 350 kts 36°
2026-05-06 21:01 60.09775 4.09213 15401 ft 347 kts 36°
2026-05-06 21:01 60.11559 4.12464 15051 ft 345 kts 37°
2026-05-06 21:01 60.13325 4.15688 14668 ft 342 kts 37°
2026-05-06 21:02 60.15076 4.18889 14332 ft 340 kts 37°
2026-05-06 21:02 60.16817 4.22074 14008 ft 338 kts 38°
2026-05-06 21:02 60.18548 4.25247 13662 ft 336 kts 38°
2026-05-06 21:02 60.20267 4.28400 13304 ft 334 kts 38°
2026-05-06 21:03 60.21977 4.31536 12937 ft 331 kts 38°
2026-05-06 21:03 60.23672 4.34646 12578 ft 329 kts 38°
2026-05-06 21:03 60.25346 4.37730 12225 ft 324 kts 39°
2026-05-06 21:03 60.26992 4.40768 11875 ft 318 kts 39°
2026-05-06 21:04 60.28606 4.43750 11535 ft 312 kts 39°
2026-05-06 21:04 60.30191 4.46679 11222 ft 306 kts 39°
2026-05-06 21:04 60.31726 4.49520 10914 ft 301 kts 39°
2026-05-06 21:04 60.33261 4.52365 10605 ft 298 kts 39°
2026-05-06 21:05 60.34783 4.55190 10297 ft 296 kts 40°
2026-05-06 21:05 60.36337 4.57885 9991 ft 293 kts 32°
2026-05-06 21:05 60.38064 4.59981 9663 ft 287 kts 25°
2026-05-06 21:05 60.39802 4.61899 9339 ft 283 kts 26°
2026-05-06 21:06 60.41514 4.63796 9003 ft 278 kts 26°
2026-05-06 21:06 60.43201 4.65668 8672 ft 275 kts 26°
2026-05-06 21:06 60.44883 4.67431 8359 ft 269 kts 19°
2026-05-06 21:06 60.46661 4.68448 8033 ft 263 kts
2026-05-06 21:07 60.48462 4.68642 7713 ft 257 kts 356°
2026-05-06 21:07 60.50241 4.68638 7401 ft 254 kts 357°
2026-05-06 21:07 60.51989 4.69003 7134 ft 252 kts 12°
2026-05-06 21:07 60.53637 4.70160 6877 ft 249 kts 18°
2026-05-06 21:08 60.55245 4.71379 6620 ft 244 kts 18°
2026-05-06 21:08 60.56795 4.72675 6386 ft 238 kts 26°
2026-05-06 21:08 60.58138 4.74598 6114 ft 235 kts 39°
2026-05-06 21:08 60.59373 4.76741 5900 ft 232 kts 38°
2026-05-06 21:09 60.60599 4.78856 5684 ft 231 kts 39°
2026-05-06 21:09 60.61668 4.81290 5480 ft 231 kts 54°
2026-05-06 21:09 60.62457 4.84145 5264 ft 231 kts 61°
2026-05-06 21:09 60.63190 4.87050 5057 ft 230 kts 67°
2026-05-06 21:10 60.63455 4.90235 4843 ft 230 kts 94°
2026-05-06 21:10 60.63029 4.93324 4614 ft 227 kts 120°
2026-05-06 21:10 60.62096 4.95893 4415 ft 225 kts 128°
2026-05-06 21:10 60.61185 4.98485 4203 ft 225 kts 127°
2026-05-06 21:11 60.60288 5.01056 3993 ft 220 kts 127°
2026-05-06 21:11 60.59428 5.03519 3782 ft 207 kts 127°
2026-05-06 21:11 60.58617 5.05839 3626 ft 196 kts 127°
2026-05-06 21:11 60.57836 5.08068 3520 ft 191 kts 127°
2026-05-06 21:12 60.57069 5.10254 3418 ft 189 kts 127°
2026-05-06 21:12 60.56151 5.12135 3307 ft 187 kts 148°
2026-05-06 21:12 60.54964 5.13131 3202 ft 185 kts 171°
2026-05-06 21:12 60.53700 5.13561 3103 ft 184 kts 172°
2026-05-06 21:13 60.52437 5.13993 3029 ft 184 kts 172°
2026-05-06 21:13 60.51179 5.14422 2985 ft 183 kts 172°
2026-05-06 21:13 60.49950 5.14842 2979 ft 172 kts 172°
2026-05-06 21:13 60.48790 5.15236 2983 ft 167 kts 172°
2026-05-06 21:14 60.47655 5.15622 2980 ft 164 kts 172°
2026-05-06 21:14 60.46529 5.16004 2999 ft 164 kts 172°
2026-05-06 21:14 60.45420 5.16381 3001 ft 163 kts 172°
2026-05-06 21:14 60.44298 5.16761 2978 ft 164 kts 172°
2026-05-06 21:15 60.43176 5.17142 2833 ft 163 kts 172°
2026-05-06 21:15 60.42061 5.17520 2630 ft 162 kts 171°
2026-05-06 21:15 60.40954 5.17895 2411 ft 161 kts 171°
2026-05-06 21:15 60.39870 5.18262 2205 ft 153 kts 171°
2026-05-06 21:16 60.38845 5.18608 1990 ft 147 kts 171°
2026-05-06 21:16 60.37847 5.18942 1787 ft 144 kts 171°
2026-05-06 21:16 60.36865 5.19271 1563 ft 143 kts 171°
2026-05-06 21:16 60.35888 5.19590 1360 ft 142 kts 171°
2026-05-06 21:17 60.34902 5.19930 1140 ft 145 kts 171°
2026-05-06 21:17 60.33908 5.20248 919 ft 144 kts 171°
2026-05-06 21:17 60.32928 5.20588 708 ft 142 kts 170°
2026-05-06 21:17 60.31953 5.20928 520 ft 141 kts 170°
2026-05-06 21:18 60.30987 5.21255 328 ft 140 kts 170°
2026-05-06 21:18 60.30025 5.21584 174 ft 139 kts 169°
2026-05-06 21:18 60.29179 5.21871 161 ft 101 kts 171°
2026-05-06 21:18 60.28653 5.22050 162 ft 58 kts 170°
2026-05-06 21:19 60.28375 5.22138 159 ft 18 kts 170°
2026-05-06 21:19 60.28318 5.22158 159 ft 9 kts 169°
2026-05-06 21:19 60.28276 5.22273 155 ft 12 kts 95°
2026-05-06 21:19 60.28282 5.22417 155 ft 10 kts 79°
2026-05-06 21:20 60.28322 5.22476 158 ft 7 kts
2026-05-06 21:20 60.28389 5.22458 161 ft 13 kts 350°
2026-05-06 21:20 60.28482 5.22426 163 ft 14 kts 351°
2026-05-06 21:20 60.28580 5.22394 164 ft 14 kts 351°
2026-05-06 21:21 60.28681 5.22361 164 ft 16 kts 350°
2026-05-06 21:21 60.28795 5.22322 162 ft 17 kts 351°
2026-05-06 21:21 60.28886 5.22291 162 ft 10 kts 349°
2026-05-06 21:21 60.28929 5.22333 164 ft 6 kts 65°
2026-05-06 21:22 60.28948 5.22378 166 ft 5 kts 28°
2026-05-06 21:22 60.28998 5.22378 166 ft 8 kts 359°
2026-05-06 21:22 60.29029 5.22430 169 ft 4 kts 71°
2026-05-06 21:22 60.29033 5.22471 170 ft 3 kts 81°
2026-05-06 21:23 60.29040 5.22560 173 ft 8 kts 81°
2026-05-06 21:23 60.29049 5.22661 174 ft 7 kts 77°
2026-05-06 21:23 60.29046 5.22718 175 ft 3 kts 130°
2026-05-06 21:23 60.29022 5.22728 174 ft 3 kts 176°
2026-05-06 21:24 60.29010 5.22728 174 ft 1 kts 182°
2026-05-06 21:24 60.28999 5.22727 173 ft 1 kts 182°
2026-05-06 21:24 60.28994 5.22726 173 ft 0 kts 182°